,,Stat5,,Stat1,,Stat2,,Stat3,,Stat4,,Wind1,,Wind1
time,status,PA1M_AVG,status,PR1M_SUM,status,RH1M_AVG,status,SR1M_AVG,status,TA1M_AVG,status,W1dAve1m,status,W1sAve1m
2000-07-07, 00:00:00,VALID,918.165,VALID,0,VALID,95.172,VALID,0.101885,VALID,17.7597,VALID,181,VALID,0.127604
2000-07-07, 00:01:00,VALID,918.164,VALID,0,VALID,95.7417,VALID,0.0679233,VALID,17.747,VALID,201,VALID,0.393914
2000-07-07, 00:02:00,VALID,918.159,VALID,0,VALID,95.9273,VALID,0.101885,VALID,17.7179,VALID,182,VALID,0.548109
2000-07-07, 00:03:00,VALID,918.15,VALID,0,VALID,96.3431,VALID,0.0509425,VALID,17.6856,VALID,176,VALID,0.596217
2000-07-07, 00:04:00,VALID,918.159,VALID,0,VALID,96.5389,VALID,0.0849042,VALID,17.663,VALID,199,VALID,0.552517
2000-07-07, 00:05:00,VALID,918.164,VALID,0,VALID,96.6623,VALID,0.0849042,VALID,17.657,VALID,202,VALID,0.472656
2000-07-07, 00:06:00,VALID,918.17,VALID,0,VALID,96.9204,VALID,0.0679233,VALID,17.6503,VALID,192,VALID,0.611914
2000-07-07, 00:07:00,VALID,918.165,VALID,0,VALID,97.0641,VALID,0.0849042,VALID,17.6466,VALID,162,VALID,0.476367
2000-07-07, 00:08:00,VALID,918.157,VALID,0,VALID,96.3978,VALID,0.0849042,VALID,17.618,VALID,159,VALID,0.38121
2000-07-07, 00:09:00,VALID,918.131,VALID,0,VALID,95.9985,VALID,0.101885,VALID,17.5534,VALID,159,VALID,0.0242187
2000-07-07, 00:10:00,VALID,918.119,VALID,0,VALID,96.2579,VALID,0.0509425,VALID,17.547,VALID,159,VALID,0
2000-07-07, 00:11:00,VALID,918.106,VALID,0,VALID,96.5008,VALID,-0.0169808,VALID,17.5511,VALID,159,VALID,0
2000-07-07, 00:12:00,VALID,918.052,VALID,0,VALID,97.3261,VALID,-0.0509425,VALID,17.6842,VALID,159,VALID,0
2000-07-07, 00:13:00,VALID,918.052,VALID,0,VALID,97.5244,VALID,-0.0509425,VALID,17.7289,VALID,159,VALID,0
2000-07-07, 00:14:00,VALID,918.03,VALID,0,VALID,97.1074,VALID,0,VALID,17.7259,VALID,159,VALID,0
2000-07-07, 00:15:00,VALID,917.995,VALID,0,VALID,96.4461,VALID,-0.0169808,VALID,17.6805,VALID,159,VALID,0
2000-07-07, 00:16:00,VALID,917.967,VALID,0,VALID,96.3965,VALID,-0.0169808,VALID,17.6579,VALID,159,VALID,0
2000-07-07, 00:17:00,VALID,917.945,VALID,0,VALID,97.0438,VALID,-0.0509425,VALID,17.7098,VALID,172,VALID,0
2000-07-07, 00:18:00,VALID,917.95,VALID,0,VALID,97.2867,VALID,-0.0169808,VALID,17.7449,VALID,192,VALID,0.116741
2000-07-07, 00:19:00,VALID,917.949,VALID,0,VALID,97.5308,VALID,-0.0339617,VALID,17.8099,VALID,197,VALID,0.274282
2000-07-07, 00:20:00,VALID,917.954,VALID,0,VALID,97.6046,VALID,-0.0509425,VALID,17.8648,VALID,197,VALID,0.192969
2000-07-07, 00:21:00,VALID,917.953,VALID,0,VALID,97.5918,VALID,-0.0169808,VALID,17.9331,VALID,196,VALID,0.155165
2000-07-07, 00:22:00,VALID,917.95,VALID,0,VALID,96.895,VALID,-0.0339617,VALID,17.9229,VALID,186,VALID,0
2000-07-07, 00:23:00,VALID,917.948,VALID,0,VALID,96.4512,VALID,-0.0679233,VALID,17.8973,VALID,186,VALID,0
2000-07-07, 00:24:00,VALID,917.941,VALID,0,VALID,96.071,VALID,-0.0679233,VALID,17.8263,VALID,190,VALID,0
2000-07-07, 00:25:00,VALID,917.942,VALID,0,VALID,96.0189,VALID,-0.0509425,VALID,17.778,VALID,196,VALID,0
2000-07-07, 00:26:00,VALID,917.939,VALID,0,VALID,95.9082,VALID,-0.0169808,VALID,17.7195,VALID,202,VALID,0
2000-07-07, 00:27:00,VALID,917.931,VALID,0,VALID,95.9667,VALID,-0.0169808,VALID,17.6706,VALID,211,VALID,0
2000-07-07, 00:28:00,VALID,917.93,VALID,0,VALID,96.0023,VALID,-0.0339617,VALID,17.6191,VALID,214,VALID,0
2000-07-07, 00:29:00,VALID,917.905,VALID,0,VALID,96.8314,VALID,-0.0339617,VALID,17.6288,VALID,210,VALID,0
2000-07-07, 00:30:00,VALID,917.888,VALID,0,VALID,97.0667,VALID,-0.0169808,VALID,17.642,VALID,208,VALID,0
2000-07-07, 00:31:00,VALID,917.883,VALID,0,VALID,97.0285,VALID,-0.0169808,VALID,17.6318,VALID,202,VALID,0
2000-07-07, 00:32:00,VALID,917.884,VALID,0,VALID,97.2002,VALID,-0.0339617,VALID,17.6519,VALID,199,VALID,0.00575658
2000-07-07, 00:33:00,VALID,917.903,VALID,0,VALID,97.1697,VALID,-0.0679233,VALID,17.6908,VALID,194,VALID,0.0010016
2000-07-07, 00:34:00,VALID,917.888,VALID,0,VALID,96.3012,VALID,-0.0339617,VALID,17.6586,VALID,176,VALID,0
2000-07-07, 00:35:00,VALID,917.891,VALID,0,VALID,95.0295,VALID,-0.0169808,VALID,17.5739,VALID,172,VALID,0
2000-07-07, 00:36:00,VALID,917.874,VALID,0,VALID,95.2241,VALID,0,VALID,17.5382,VALID,172,VALID,0
2000-07-07, 00:37:00,VALID,917.87,VALID,0,VALID,96.38,VALID,0,VALID,17.5709,VALID,172,VALID,0
2000-07-07, 00:38:00,VALID,917.85,VALID,0,VALID,96.1358,VALID,-0.0339617,VALID,17.5386,VALID,172,VALID,0
2000-07-07, 00:39:00,VALID,917.843,VALID,0,VALID,95.4047,VALID,-0.0679233,VALID,17.4551,VALID,171,VALID,0
2000-07-07, 00:40:00,VALID,917.817,VALID,0,VALID,95.7696,VALID,-0.0169808,VALID,17.3968,VALID,164,VALID,0
2000-07-07, 00:41:00,VALID,917.793,VALID,0,VALID,95.439,VALID,-0.0169808,VALID,17.3091,VALID,122,VALID,0
2000-07-07, 00:42:00,VALID,917.772,VALID,0,VALID,95.9922,VALID,0.0339617,VALID,17.2316,VALID,108,VALID,0
2000-07-07, 00:43:00,VALID,917.76,VALID,0,VALID,96.9738,VALID,0,VALID,17.2286,VALID,124,VALID,0.00661058
2000-07-07, 00:44:00,VALID,917.757,VALID,0,VALID,97.56,VALID,0,VALID,17.3156,VALID,132,VALID,0.909091
2000-07-07, 00:45:00,VALID,917.76,VALID,0,VALID,97.5486,VALID,0.0169808,VALID,17.4323,VALID,135,VALID,0.589627
2000-07-07, 00:46:00,VALID,917.784,VALID,0,VALID,97.307,VALID,0.0339617,VALID,17.5031,VALID,140,VALID,0.339844
2000-07-07, 00:47:00,VALID,917.785,VALID,0,VALID,96.8963,VALID,0,VALID,17.5545,VALID,145,VALID,0.241987
2000-07-07, 00:48:00,VALID,917.776,VALID,0,VALID,96.3113,VALID,0.0339617,VALID,17.5578,VALID,171,VALID,0
2000-07-07, 00:49:00,VALID,917.753,VALID,0,VALID,95.8548,VALID,0.0849042,VALID,17.5391,VALID,174,VALID,0
2000-07-07, 00:50:00,VALID,917.731,VALID,0,VALID,95.4632,VALID,0,VALID,17.474,VALID,174,VALID,0
2000-07-07, 00:51:00,VALID,917.71,VALID,0,VALID,95.0067,VALID,0,VALID,17.3998,VALID,174,VALID,0
2000-07-07, 00:52:00,VALID,917.689,VALID,0,VALID,95.3805,VALID,0.0339617,VALID,17.3578,VALID,174,VALID,0
2000-07-07, 00:53:00,VALID,917.661,VALID,0,VALID,96.216,VALID,0.0339617,VALID,17.3414,VALID,174,VALID,0
2000-07-07, 00:54:00,VALID,917.649,VALID,0,VALID,96.675,VALID,0.0169808,VALID,17.3483,VALID,174,VALID,0
2000-07-07, 00:55:00,VALID,917.63,VALID,0,VALID,96.5517,VALID,0.0509425,VALID,17.3354,VALID,174,VALID,0
2000-07-07, 00:56:00,VALID,917.616,VALID,0,VALID,96.2414,VALID,-0.0679233,VALID,17.304,VALID,174,VALID,0
2000-07-07, 00:57:00,VALID,917.616,VALID,0,VALID,96.2986,VALID,-0.0169808,VALID,17.2876,VALID,174,VALID,0
2000-07-07, 00:58:00,VALID,917.602,VALID,0,VALID,96.6305,VALID,-0.0849042,VALID,17.2947,VALID,174,VALID,0
2000-07-07, 00:59:00,VALID,917.582,VALID,0,VALID,97.1048,VALID,-0.0679233,VALID,17.3365,VALID,174,VALID,0
2000-07-07, 01:00:00,VALID,917.586,VALID,0,VALID,97.424,VALID,-0.0509425,VALID,17.3852,VALID,174,VALID,0
2000-07-07, 01:01:00,VALID,917.561,VALID,0,VALID,97.396,VALID,-0.0849042,VALID,17.4329,VALID,174,VALID,0
2000-07-07, 01:02:00,VALID,917.568,VALID,0,VALID,97.0654,VALID,-0.0509425,VALID,17.4334,VALID,174,VALID,0
2000-07-07, 01:03:00,VALID,917.572,VALID,0,VALID,97.1798,VALID,-0.0849042,VALID,17.4592,VALID,174,VALID,0
2000-07-07, 01:04:00,VALID,917.577,VALID,0,VALID,97.0679,VALID,-0.0679233,VALID,17.4915,VALID,174,VALID,0
2000-07-07, 01:05:00,VALID,917.583,VALID,0,VALID,96.7653,VALID,-0.0509425,VALID,17.5335,VALID,174,VALID,0
2000-07-07, 01:06:00,VALID,917.58,VALID,0,VALID,96.4703,VALID,-0.0509425,VALID,17.5531,VALID,179,VALID,0
2000-07-07, 01:07:00,VALID,917.565,VALID,0,VALID,96.1295,VALID,-0.0169808,VALID,17.5462,VALID,189,VALID,0.321715
2000-07-07, 01:08:00,VALID,917.579,VALID,0,VALID,95.659,VALID,-0.0339617,VALID,17.5201,VALID,191,VALID,0.0874155
2000-07-07, 01:09:00,VALID,917.567,VALID,0,VALID,95.6285,VALID,-0.0679233,VALID,17.4947,VALID,195,VALID,0
2000-07-07, 01:10:00,VALID,917.567,VALID,0,VALID,95.6437,VALID,-0.0679233,VALID,17.456,VALID,188,VALID,0
2000-07-07, 01:11:00,VALID,917.573,VALID,0,VALID,95.9667,VALID,0.0169808,VALID,17.4129,VALID,180,VALID,0.193109
2000-07-07, 01:12:00,VALID,917.584,VALID,0,VALID,96.3279,VALID,0.0339617,VALID,17.4095,VALID,179,VALID,0.611506
2000-07-07, 01:13:00,VALID,917.584,VALID,0,VALID,96.2427,VALID,0.0339617,VALID,17.4226,VALID,179,VALID,0.653646
2000-07-07, 01:14:00,VALID,917.572,VALID,0,VALID,95.5636,VALID,0.0169808,VALID,17.5292,VALID,179,VALID,0.527755
2000-07-07, 01:15:00,VALID,917.566,VALID,0,VALID,95.0855,VALID,0.0169808,VALID,17.6482,VALID,179,VALID,0.147636
2000-07-07, 01:16:00,VALID,917.565,VALID,0,VALID,94.746,VALID,0.0169808,VALID,17.7229,VALID,187,VALID,0
2000-07-07, 01:17:00,VALID,917.565,VALID,0,VALID,94.4548,VALID,0,VALID,17.7483,VALID,191,VALID,0
2000-07-07, 01:18:00,VALID,917.565,VALID,0,VALID,94.1699,VALID,0.0169808,VALID,17.8004,VALID,191,VALID,0
2000-07-07, 01:19:00,VALID,917.554,VALID,0,VALID,94.0517,VALID,0.0169808,VALID,17.8293,VALID,191,VALID,0
2000-07-07, 01:20:00,VALID,917.557,VALID,0,VALID,93.8724,VALID,0.0339617,VALID,17.8323,VALID,191,VALID,0
2000-07-07, 01:21:00,VALID,917.551,VALID,0,VALID,94.0313,VALID,0.0169808,VALID,17.82,VALID,191,VALID,0
2000-07-07, 01:22:00,VALID,917.534,VALID,0,VALID,94.1229,VALID,0.0169808,VALID,17.7811,VALID,191,VALID,0
2000-07-07, 01:23:00,VALID,917.537,VALID,0,VALID,94.2234,VALID,0,VALID,17.7649,VALID,191,VALID,0
2000-07-07, 01:24:00,VALID,917.531,VALID,0,VALID,94.2551,VALID,0.0679233,VALID,17.7582,VALID,191,VALID,0
2000-07-07, 01:25:00,VALID,917.529,VALID,0,VALID,93.9919,VALID,0.0169808,VALID,17.749,VALID,191,VALID,0
2000-07-07, 01:26:00,VALID,917.525,VALID,0,VALID,94.039,VALID,-0.0339617,VALID,17.7072,VALID,191,VALID,0
2000-07-07, 01:27:00,VALID,917.525,VALID,0,VALID,94.306,VALID,-0.0849042,VALID,17.695,VALID,191,VALID,0
2000-07-07, 01:28:00,VALID,917.534,VALID,0,VALID,94.348,VALID,-0.0849042,VALID,17.6691,VALID,191,VALID,0
2000-07-07, 01:29:00,VALID,917.526,VALID,0,VALID,94.3505,VALID,-0.101885,VALID,17.6274,VALID,191,VALID,0
2000-07-07, 01:30:00,VALID,917.527,VALID,0,VALID,94.7345,VALID,-0.101885,VALID,17.5983,VALID,190,VALID,0
2000-07-07, 01:31:00,VALID,917.525,VALID,0,VALID,94.8274,VALID,-0.101885,VALID,17.5563,VALID,177,VALID,0
2000-07-07, 01:32:00,VALID,917.522,VALID,0,VALID,95.0537,VALID,-0.118866,VALID,17.5141,VALID,177,VALID,0
2000-07-07, 01:33:00,VALID,917.528,VALID,0,VALID,94.8375,VALID,-0.0849042,VALID,17.482,VALID,175,VALID,0
2000-07-07, 01:34:00,VALID,917.54,VALID,0,VALID,94.9062,VALID,-0.101885,VALID,17.4497,VALID,175,VALID,0
2000-07-07, 01:35:00,VALID,917.546,VALID,0,VALID,95.2762,VALID,-0.118866,VALID,17.4271,VALID,175,VALID,0
2000-07-07, 01:36:00,VALID,917.54,VALID,0,VALID,95.6666,VALID,-0.101885,VALID,17.4075,VALID,153,VALID,0
2000-07-07, 01:37:00,VALID,917.533,VALID,0,VALID,95.8459,VALID,-0.101885,VALID,17.4207,VALID,128,VALID,0
2000-07-07, 01:38:00,VALID,917.525,VALID,0,VALID,95.9095,VALID,-0.101885,VALID,17.4239,VALID,123,VALID,0
2000-07-07, 01:39:00,VALID,917.533,VALID,0,VALID,95.9349,VALID,-0.0849042,VALID,17.4269,VALID,123,VALID,0
2000-07-07, 01:40:00,VALID,917.537,VALID,0,VALID,95.8421,VALID,-0.101885,VALID,17.4401,VALID,123,VALID,0
2000-07-07, 01:41:00,VALID,917.531,VALID,0,VALID,95.9922,VALID,0.0169808,VALID,17.4671,VALID,134,VALID,0
2000-07-07, 01:42:00,VALID,917.52,VALID,0,VALID,95.6437,VALID,0,VALID,17.516,VALID,178,VALID,0
2000-07-07, 01:43:00,VALID,917.517,VALID,0,VALID,95.3869,VALID,0.0169808,VALID,17.5156,VALID,198,VALID,0.0979567
2000-07-07, 01:44:00,VALID,917.508,VALID,0,VALID,95.5649,VALID,0.0169808,VALID,17.5087,VALID,198,VALID,1.10527
2000-07-07, 01:45:00,VALID,917.495,VALID,0,VALID,95.5725,VALID,0,VALID,17.5059,VALID,194,VALID,1.10357
2000-07-07, 01:46:00,VALID,917.487,VALID,0,VALID,95.3907,VALID,0.0339617,VALID,17.505,VALID,191,VALID,0.870566
2000-07-07, 01:47:00,VALID,917.478,VALID,0,VALID,95.2419,VALID,0.0169808,VALID,17.5412,VALID,190,VALID,0.955882
2000-07-07, 01:48:00,VALID,917.466,VALID,0,VALID,94.938,VALID,0.0509425,VALID,17.5829,VALID,199,VALID,0.878795
2000-07-07, 01:49:00,VALID,917.458,VALID,0,VALID,94.6404,VALID,0.0509425,VALID,17.6443,VALID,195,VALID,0.580798
2000-07-07, 01:50:00,VALID,917.473,VALID,0,VALID,94.409,VALID,0.0339617,VALID,17.6344,VALID,200,VALID,0.525338
2000-07-07, 01:51:00,VALID,917.475,VALID,0,VALID,94.5247,VALID,0,VALID,17.612,VALID,207,VALID,0.431127
2000-07-07, 01:52:00,VALID,917.496,VALID,0,VALID,94.7714,VALID,0,VALID,17.5672,VALID,205,VALID,0.0578125
2000-07-07, 01:53:00,VALID,917.495,VALID,0,VALID,95.1465,VALID,0,VALID,17.5128,VALID,191,VALID,0
2000-07-07, 01:54:00,VALID,917.506,VALID,0,VALID,95.2152,VALID,0.0169808,VALID,17.4575,VALID,180,VALID,0
2000-07-07, 01:55:00,VALID,917.513,VALID,0,VALID,95.3843,VALID,0.0169808,VALID,17.4026,VALID,174,VALID,0
2000-07-07, 01:56:00,VALID,917.52,VALID,0,VALID,96.1638,VALID,-0.0849042,VALID,17.3871,VALID,174,VALID,0.636308
2000-07-07, 01:57:00,VALID,917.533,VALID,0,VALID,96.4983,VALID,-0.0679233,VALID,17.4202,VALID,173,VALID,0.907252
2000-07-07, 01:58:00,VALID,917.542,VALID,0,VALID,96.5974,VALID,-0.0679233,VALID,17.4196,VALID,181,VALID,1.01211
2000-07-07, 01:59:00,VALID,917.54,VALID,0,VALID,96.6941,VALID,-0.0849042,VALID,17.4265,VALID,193,VALID,0.99442
2000-07-07, 02:00:00,VALID,917.545,VALID,0,VALID,96.7996,VALID,-0.0509425,VALID,17.4323,VALID,188,VALID,1.13767
2000-07-07, 02:01:00,VALID,917.545,VALID,0,VALID,96.8467,VALID,-0.0679233,VALID,17.4809,VALID,181,VALID,0.954044
2000-07-07, 02:02:00,VALID,917.528,VALID,0,VALID,96.7869,VALID,-0.0849042,VALID,17.5363,VALID,181,VALID,0.918527
2000-07-07, 02:03:00,VALID,917.514,VALID,0,VALID,96.7221,VALID,-0.101885,VALID,17.6011,VALID,181,VALID,0.927284
2000-07-07, 02:04:00,VALID,917.503,VALID,0,VALID,96.5517,VALID,-0.101885,VALID,17.6562,VALID,180,VALID,0.915752
2000-07-07, 02:05:00,VALID,917.484,VALID,0,VALID,96.1969,VALID,-0.0849042,VALID,17.7204,VALID,179,VALID,0.97574
2000-07-07, 02:06:00,VALID,917.461,VALID,0,VALID,95.8624,VALID,-0.101885,VALID,17.7725,VALID,181,VALID,0.902009
2000-07-07, 02:07:00,VALID,917.434,VALID,0,VALID,95.5471,VALID,-0.0679233,VALID,17.7951,VALID,185,VALID,0.9375
2000-07-07, 02:08:00,VALID,917.408,VALID,0,VALID,95.3449,VALID,-0.0849042,VALID,17.7847,VALID,179,VALID,0.954545
2000-07-07, 02:09:00,VALID,917.388,VALID,0,VALID,95.3653,VALID,-0.101885,VALID,17.7753,VALID,173,VALID,1.01671
2000-07-07, 02:10:00,VALID,917.364,VALID,0,VALID,95.1351,VALID,-0.0849042,VALID,17.785,VALID,171,VALID,1.06641
2000-07-07, 02:11:00,VALID,917.355,VALID,0,VALID,94.9215,VALID,-0.101885,VALID,17.7815,VALID,172,VALID,1.05669
2000-07-07, 02:12:00,VALID,917.341,VALID,0,VALID,94.8452,VALID,-0.0849042,VALID,17.7884,VALID,169,VALID,1.05137
2000-07-07, 02:13:00,VALID,917.336,VALID,0,VALID,94.6341,VALID,-0.101885,VALID,17.8041,VALID,164,VALID,1.04621
2000-07-07, 02:14:00,VALID,917.342,VALID,0,VALID,94.3645,VALID,-0.101885,VALID,17.814,VALID,154,VALID,0.895904
2000-07-07, 02:15:00,VALID,917.323,VALID,0,VALID,94.5044,VALID,-0.101885,VALID,17.7979,VALID,155,VALID,0.941636
2000-07-07, 02:16:00,VALID,917.316,VALID,0,VALID,94.498,VALID,-0.101885,VALID,17.7845,VALID,156,VALID,0.966964
2000-07-07, 02:17:00,VALID,917.303,VALID,0,VALID,94.2717,VALID,-0.101885,VALID,17.8076,VALID,164,VALID,0.959135
2000-07-07, 02:18:00,VALID,917.297,VALID,0,VALID,93.3447,VALID,-0.101885,VALID,17.8461,VALID,163,VALID,1.02787
2000-07-07, 02:19:00,VALID,917.277,VALID,0,VALID,92.9111,VALID,-0.0849042,VALID,17.9462,VALID,163,VALID,0.936678
2000-07-07, 02:20:00,VALID,917.261,VALID,0,VALID,92.1723,VALID,-0.0509425,VALID,18.0004,VALID,164,VALID,1.00402
2000-07-07, 02:21:00,VALID,917.244,VALID,0,VALID,91.7793,VALID,-0.0679233,VALID,18.0844,VALID,173,VALID,0.851162
2000-07-07, 02:22:00,VALID,917.235,VALID,0,VALID,91.8111,VALID,-0.0679233,VALID,18.1329,VALID,188,VALID,0.662879
2000-07-07, 02:23:00,VALID,917.229,VALID,0,VALID,91.8633,VALID,-0.0849042,VALID,18.1006,VALID,191,VALID,0.824653
2000-07-07, 02:24:00,VALID,917.211,VALID,0,VALID,91.2631,VALID,-0.0679233,VALID,18.1008,VALID,188,VALID,0.907072
2000-07-07, 02:25:00,VALID,917.206,VALID,0,VALID,91.1766,VALID,-0.101885,VALID,18.1428,VALID,185,VALID,0.844752
2000-07-07, 02:26:00,VALID,917.2,VALID,0,VALID,91.3788,VALID,-0.0679233,VALID,18.1658,VALID,183,VALID,0.776563
2000-07-07, 02:27:00,VALID,917.2,VALID,0,VALID,91.8429,VALID,-0.0679233,VALID,18.1137,VALID,187,VALID,0.631696
2000-07-07, 02:28:00,VALID,917.189,VALID,0,VALID,92.2854,VALID,-0.0849042,VALID,18.0235,VALID,188,VALID,0.627956
2000-07-07, 02:29:00,VALID,917.19,VALID,0,VALID,92.7127,VALID,-0.0679233,VALID,17.9389,VALID,185,VALID,0.494256
2000-07-07, 02:30:00,VALID,917.172,VALID,0,VALID,93.0459,VALID,-0.0849042,VALID,17.8913,VALID,176,VALID,0.125446
2000-07-07, 02:31:00,VALID,917.159,VALID,0,VALID,93.3065,VALID,-0.0679233,VALID,17.8265,VALID,176,VALID,0
2000-07-07, 02:32:00,VALID,917.144,VALID,0,VALID,93.4973,VALID,-0.0509425,VALID,17.7877,VALID,176,VALID,0
2000-07-07, 02:33:00,VALID,917.133,VALID,0,VALID,93.7084,VALID,-0.0849042,VALID,17.7457,VALID,181,VALID,0
2000-07-07, 02:34:00,VALID,917.121,VALID,0,VALID,93.9309,VALID,-0.0509425,VALID,17.6939,VALID,187,VALID,0
2000-07-07, 02:35:00,VALID,917.118,VALID,0,VALID,94.1165,VALID,-0.0849042,VALID,17.6387,VALID,187,VALID,0
2000-07-07, 02:36:00,VALID,917.112,VALID,0,VALID,94.2132,VALID,-0.101885,VALID,17.6237,VALID,184,VALID,0.0485322
2000-07-07, 02:37:00,VALID,917.093,VALID,0,VALID,94.0847,VALID,-0.101885,VALID,17.5455,VALID,158,VALID,0.406467
2000-07-07, 02:38:00,VALID,917.075,VALID,0,VALID,94.2907,VALID,-0.0849042,VALID,17.4454,VALID,143,VALID,0.222451
2000-07-07, 02:39:00,VALID,917.071,VALID,0,VALID,94.8172,VALID,-0.0849042,VALID,17.3645,VALID,117,VALID,0
2000-07-07, 02:40:00,VALID,917.063,VALID,0,VALID,95.158,VALID,-0.101885,VALID,17.2934,VALID,70,VALID,0
2000-07-07, 02:41:00,VALID,917.049,VALID,0,VALID,95.3157,VALID,0,VALID,17.3287,VALID,62,VALID,0
2000-07-07, 02:42:00,VALID,917.026,VALID,0,VALID,94.9329,VALID,0,VALID,17.4028,VALID,64,VALID,0
2000-07-07, 02:43:00,VALID,916.997,VALID,0,VALID,94.4128,VALID,0.0339617,VALID,17.474,VALID,89,VALID,0
2000-07-07, 02:44:00,VALID,916.972,VALID,0,VALID,94.3709,VALID,0,VALID,17.4542,VALID,104,VALID,0
2000-07-07, 02:45:00,VALID,916.962,VALID,0,VALID,94.5349,VALID,0.0169808,VALID,17.4353,VALID,104,VALID,0
2000-07-07, 02:46:00,VALID,916.923,VALID,0,VALID,94.7129,VALID,0,VALID,17.4258,VALID,104,VALID,0
2000-07-07, 02:47:00,VALID,916.912,VALID,0,VALID,94.6328,VALID,0,VALID,17.4161,VALID,104,VALID,0
2000-07-07, 02:48:00,VALID,916.907,VALID,0,VALID,94.6659,VALID,0,VALID,17.3769,VALID,104,VALID,0
2000-07-07, 02:49:00,VALID,916.894,VALID,0,VALID,94.9393,VALID,0,VALID,17.3645,VALID,104,VALID,0
2000-07-07, 02:50:00,VALID,916.879,VALID,0,VALID,95.0613,VALID,0,VALID,17.3638,VALID,125,VALID,0
2000-07-07, 02:51:00,VALID,916.869,VALID,0,VALID,94.657,VALID,-0.0169808,VALID,17.4256,VALID,167,VALID,0
2000-07-07, 02:52:00,VALID,916.849,VALID,0,VALID,94.0784,VALID,0,VALID,17.5326,VALID,167,VALID,0
2000-07-07, 02:53:00,VALID,916.869,VALID,0,VALID,93.5583,VALID,0,VALID,17.5737,VALID,167,VALID,0
2000-07-07, 02:54:00,VALID,916.866,VALID,0,VALID,93.3981,VALID,0.0169808,VALID,17.6062,VALID,167,VALID,0
2000-07-07, 02:55:00,VALID,916.857,VALID,0,VALID,93.3955,VALID,0,VALID,17.6097,VALID,167,VALID,0
2000-07-07, 02:56:00,VALID,916.865,VALID,0,VALID,93.1679,VALID,-0.0849042,VALID,17.6463,VALID,141,VALID,0
2000-07-07, 02:57:00,VALID,916.888,VALID,0,VALID,93.1743,VALID,-0.101885,VALID,17.6364,VALID,140,VALID,0
2000-07-07, 02:58:00,VALID,916.881,VALID,0,VALID,93.2353,VALID,-0.118866,VALID,17.6364,VALID,140,VALID,0
2000-07-07, 02:59:00,VALID,916.877,VALID,0,VALID,93.2455,VALID,-0.0849042,VALID,17.6237,VALID,140,VALID,0
2000-07-07, 03:00:00,VALID,916.882,VALID,0,VALID,93.1997,VALID,-0.101885,VALID,17.6175,VALID,96,VALID,0
2000-07-07, 03:01:00,VALID,916.87,VALID,0,VALID,92.3541,VALID,-0.101885,VALID,17.7143,VALID,70,VALID,0
2000-07-07, 03:02:00,VALID,916.856,VALID,0,VALID,91.3724,VALID,-0.101885,VALID,17.8532,VALID,76,VALID,0
2000-07-07, 03:03:00,VALID,916.834,VALID,0,VALID,90.9591,VALID,-0.101885,VALID,17.9732,VALID,100,VALID,0
2000-07-07, 03:04:00,VALID,916.816,VALID,0,VALID,90.1975,VALID,-0.101885,VALID,18.0572,VALID,104,VALID,0
2000-07-07, 03:05:00,VALID,916.802,VALID,0,VALID,90.0805,VALID,-0.101885,VALID,18.1248,VALID,114,VALID,0
2000-07-07, 03:06:00,VALID,916.783,VALID,0,VALID,90.083,VALID,-0.118866,VALID,18.1149,VALID,117,VALID,0
2000-07-07, 03:07:00,VALID,916.787,VALID,0,VALID,90.1936,VALID,-0.101885,VALID,18.0597,VALID,113,VALID,0
2000-07-07, 03:08:00,VALID,916.79,VALID,0,VALID,89.9889,VALID,-0.118866,VALID,18.0699,VALID,104,VALID,0.0476562
2000-07-07, 03:09:00,VALID,916.803,VALID,0,VALID,89.7982,VALID,-0.101885,VALID,18.1084,VALID,83,VALID,0.393527
2000-07-07, 03:10:00,VALID,916.813,VALID,0,VALID,89.732,VALID,-0.118866,VALID,18.1345,VALID,88,VALID,0.0401182
2000-07-07, 03:11:00,VALID,916.805,VALID,0,VALID,89.732,VALID,-0.0169808,VALID,18.1232,VALID,96,VALID,0
2000-07-07, 03:12:00,VALID,916.81,VALID,0,VALID,89.7003,VALID,0,VALID,18.1495,VALID,102,VALID,0
2000-07-07, 03:13:00,VALID,916.815,VALID,0,VALID,89.5922,VALID,0,VALID,18.1589,VALID,109,VALID,0
2000-07-07, 03:14:00,VALID,916.818,VALID,0,VALID,89.54,VALID,0,VALID,18.1684,VALID,109,VALID,0
2000-07-07, 03:15:00,VALID,916.813,VALID,0,VALID,89.7308,VALID,0,VALID,18.1294,VALID,109,VALID,0
2000-07-07, 03:16:00,VALID,916.813,VALID,0,VALID,89.9215,VALID,-0.0169808,VALID,18.0973,VALID,109,VALID,0
2000-07-07, 03:17:00,VALID,916.806,VALID,0,VALID,90.0512,VALID,0,VALID,18.078,VALID,109,VALID,0
2000-07-07, 03:18:00,VALID,916.817,VALID,0,VALID,89.9686,VALID,0,VALID,18.0743,VALID,116,VALID,0
2000-07-07, 03:19:00,VALID,916.82,VALID,0,VALID,89.7537,VALID,0,VALID,18.0973,VALID,121,VALID,0
2000-07-07, 03:20:00,VALID,916.813,VALID,0,VALID,89.5795,VALID,-0.0169808,VALID,18.1326,VALID,122,VALID,0
2000-07-07, 03:21:00,VALID,916.807,VALID,0,VALID,89.5655,VALID,0,VALID,18.1456,VALID,120,VALID,0.613982
2000-07-07, 03:22:00,VALID,916.784,VALID,0,VALID,89.6837,VALID,0,VALID,18.1296,VALID,112,VALID,1.19297
2000-07-07, 03:23:00,VALID,916.774,VALID,0,VALID,89.6583,VALID,0,VALID,18.1232,VALID,106,VALID,0.48683
2000-07-07, 03:24:00,VALID,916.784,VALID,0,VALID,89.6952,VALID,0,VALID,18.0941,VALID,14,VALID,0.526816
2000-07-07, 03:25:00,VALID,916.783,VALID,0,VALID,89.4408,VALID,0,VALID,18.1615,VALID,328,VALID,0.360524
2000-07-07, 03:26:00,VALID,916.785,VALID,0,VALID,89.3467,VALID,0,VALID,18.23,VALID,326,VALID,0.116295
2000-07-07, 03:27:00,VALID,916.784,VALID,0,VALID,88.9449,VALID,-0.0169808,VALID,18.2425,VALID,1,VALID,0.386218
2000-07-07, 03:28:00,VALID,916.777,VALID,0,VALID,88.14,VALID,0,VALID,18.2914,VALID,351,VALID,0
2000-07-07, 03:29:00,VALID,916.8,VALID,0,VALID,89.0505,VALID,-0.0169808,VALID,18.1356,VALID,352,VALID,0
2000-07-07, 03:30:00,VALID,916.801,VALID,0,VALID,90.2318,VALID,0,VALID,18.036,VALID,352,VALID,0
2000-07-07, 03:31:00,VALID,916.803,VALID,0,VALID,90.6298,VALID,0,VALID,17.9585,VALID,352,VALID,0
2000-07-07, 03:32:00,VALID,916.805,VALID,0,VALID,91.0812,VALID,0,VALID,17.8939,VALID,352,VALID,0
2000-07-07, 03:33:00,VALID,916.801,VALID,0,VALID,91.4538,VALID,0.0169808,VALID,17.8588,VALID,352,VALID,0
2000-07-07, 03:34:00,VALID,916.801,VALID,0,VALID,91.7043,VALID,-0.0169808,VALID,17.8127,VALID,352,VALID,0
2000-07-07, 03:35:00,VALID,916.8,VALID,0,VALID,91.8785,VALID,-0.0169808,VALID,17.7905,VALID,352,VALID,0
2000-07-07, 03:36:00,VALID,916.789,VALID,0,VALID,92.1392,VALID,-0.0169808,VALID,17.7744,VALID,360,VALID,0
2000-07-07, 03:37:00,VALID,916.787,VALID,0,VALID,92.0591,VALID,0,VALID,17.7804,VALID,158,VALID,0
2000-07-07, 03:38:00,VALID,916.774,VALID,0,VALID,91.8493,VALID,0,VALID,17.8228,VALID,161,VALID,0
2000-07-07, 03:39:00,VALID,916.776,VALID,0,VALID,91.5784,VALID,0,VALID,17.8489,VALID,155,VALID,0
2000-07-07, 03:40:00,VALID,916.765,VALID,0,VALID,91.2351,VALID,-0.0169808,VALID,17.8971,VALID,146,VALID,0
2000-07-07, 03:41:00,VALID,916.744,VALID,0,VALID,90.6934,VALID,0,VALID,17.9391,VALID,138,VALID,0